IRIDIUM 149 (43250 NORAD) Tracking and Keplerian Element Data

This shows tracking and keplerian element data for the satellite.

Feedback or suggestion? Click here.




ElementValue
Catalog43250
NameIRIDIUM 149
Epoch Orbit423
Epoch Day118.58643315
Epoch Year2018
RAAN92.2808
Inclination86.3943
Eccentricity0.0001622
Argument of Perigee86.7554
Mean Anonmoly273.3828
Mean Motion14.34230454
Decay Rate4E-07
L11 43250U 18030B 18118.58643315 .00000040 00000-0 72808-5 0 9994
L22 43250 86.3943 92.2808 0001622 86.7554 273.3828 14.34230454 4236

Live tracking and technical data element details for IRIDIUM 149 (NORAD 43250). IRIDIUM 149 can be tracked NOW for your location showing map with azimuth and elevation plus other details from your city location.

Track the satellite on the map from your city or location and see movement details for azimuth, elevation, latitude, longitude, range, height, and movement on the map or in text.







IsCatalogInMostPopularTable: catalog: 43250, numindb: 59
Update: records affected: 1



GetName: 43250 IRIDIUM 149

Hit Count: updated at: Mon, 19 Nov 2018 16:37:39 GMT